Terminal Aerodrome Forecast
Issued by NWS Greer, SC

Home | Current Version | Previous Version | Text Only | Print | Product List | Glossary On
Versions: 1 2 3 4 5 6 7 8 9 10 11 12 13 14 15 16 17 18 19 20 21 22 23 24 25 26 27 28 29 30 31 32 33 34 35 36 37 38 39 40 41
000
FTUS42 KGSP 222300
TAFCLT
TAF
KCLT 222333Z 2300/2324 04003KT P6SM SCT200 BKN250
     FM230600 03007KT P6SM SCT200 BKN250
     FM231400 05009G14KT P6SM BKN045 BKN250
     FM232000 05007KT P6SM SCT035=

USA.gov is the U.S. government's official web portal to all federal, state and local government web resources and services.